Terug naar catalogus

FENGYUN 1C DEB

ActiefSSO
NORAD 30328·DEBRIS·🇨🇳 China

Gelanceerd May 10, 1999 vanaf Taiyuan Satellite Launch Center

Loading…

Volgende Passages (komende 24 uur)

TLE

VersSource: Space-Track

Epoch: Sep 14, 2026, 11:46 UTC

1 30328U 99025AAP 26257.49075212  .00000116  00000-0  85904-4 0  9991
2 30328  98.6844 264.1963 0006538  96.0724  57.0192 14.12597813 11511

Volg FENGYUN 1C DEB in realtime met AllMySat

Download on the App Store